SS 1

导读

SS 1是美国于1977年12月8日08:00发射的人造卫星。作为冷战时期美国航天布局的组成部分,该卫星承载着特定空间探测或技术试验任务,是美国在航天领域持续推进技术验证与空间资产部署的缩影。它的成功发射拓展了美国对近地空间的利用能力,也反映了二十世纪70年代美国航天发射活动的常态化推进,在全球航天发展早期阶段积累了重要的实践经验。

Basic Information
目录编号:
10529
目录名称:
SS 1
国际标识:
1977-112D
轨道中心:
EARTH
卫星名称:
SS 1
卫星全名:
--
卫星状态:
在轨 (已飞行17750 天)
发射日期:
1977-12-08 UTC
国别 :
美国 (US)
星等 :
--
Orbit Information
数据来源 国际轨道数据 AOE轨道数据
星历时间 2026-07-13T23:04:02+0800
19小时前
查看轨道信息
2026-07-11T06:00:00+0800
3天前
查看轨道信息
半长轴 7305.289km 7305.298km
偏心率 0.0511622 0.0511919
轨道倾角 63.340° 63.342°
近地点辐角 162.935° 162.910°
升交点赤经 282.768° 290.343°
平近点角 198.965° 308.297°
近地点 553.397km 553.188km
远地点 1300.907km 1301.134km
周期 103.566分钟 103.566分钟
每日圈数 13.904223 13.904197
Detailed Information
使用方式:
暂无
2D Orbit Map
3D Orbit Map
Orbit Altitude Analysis Chart
Orbit Inclination Analysis Chart
Orbit Comprehensive Analysis Chart
View Comprehensive Chart